User: anonymous   Login
Location: Unspecified
(0.0000°N, 0.0000°E)
Time: 21:53:39
(UTC+02:00)
Language:

ARIANE 5 R/B - Orbit

View from above orbital plane
View from above orbital plane
View from above satellite
View from above satellite

Ground track
Ground track

The orbit data is extracted from the following two-line orbital elements,

1 28379U 04027B   18173.81921628 +.00000165 +00000-0 -57614-3 0  9998
2 28379 006.5310 201.7180 7279620 320.9028 265.5261 02.07929109105835
Epoch (UTC): 22 June 2018 19:39:40
Eccentricity: 0.7279620
inclination: 6.5310°
perigee height: 675 km
apogee height: 38426 km
right ascension of ascending node: 201.7180°
argument of perigee: 320.9028°
revolutions per day: 2.07929109
mean anomaly at epoch: 265.5261°
orbit number at epoch: 10583

The dashed part of the orbit path shows where the satellite is in the earth's shadow,  

DLR